Location: Huberhof
(49.2050°N, 7.4980°E)
Time: 05:23:22
(UTC+00:00)

FALCON 9 DEB - Pass Details

Date: 29 October 2020
Orbit: 383 x 397 km, 53.0° (Epoch: 25 November)

Event Time Altitude Azimuth Distance (km) Brightness Sun altitude
Rises 18:00:58 0° 261° (W) 2,308 8.5 -18.1°
Reaches altitude 10° 18:03:04 10° 266° (W) 1,449 7.0 -18.4°
Maximum altitude 18:06:16 53° 345° (NNW) 497 3.4 -18.9°
Enters shadow 18:06:37 50° 13° (NNE) 519 3.3 -19.0°
